Home   Weather   Nienburg (Weser)   Past weeks

Flag for Germany Past Weather in Nienburg (Weser), Lower Saxony, Germany — Yesterday and Last 2 Weeks

Now
27 °F

Chilly.


Feels Like: 27 °F
Forecast: 25 / 32 °F
Wind: 1 mph from Northwest

Location: Wunstorf Airport

Current Time: Jan 18, 2017 at 3:06:52 am

Latest Report: Jan 18, 2017 at 2:20 am


Visibility: N/A

Pressure: 30.72 "Hg

Humidity: 93%

Dew Point: 25 °F

Location of Nienburg (Weser)Location

Past Weather in Nienburg (Weser) — Graph

°F

Nienburg (Weser) Temperature Yesterday

Maximum temperature yesterday: 27 °F (at 3:20 pm)
Minimum temperature yesterday: 23 °F (at 5:20 am)
Average temperature yesterday: 25 °F

High & Low Weather Summary for the Past Weeks

 TemperatureHumidityPressure
High45 °F (Jan 11, 3:10 pm)100% (Jan 7, 5:20 pm)30.77 "Hg (Jan 7, 5:20 pm)
Low12 °F (Jan 6, 8:20 am)51% (Jan 4, 10:20 pm)28.94 "Hg (Jan 13, 4:20 am)
Average32 °F85%30.05 "Hg
* Reported Jan 3 1:20 am — Jan 18 1:20 am, Nienburg (Weser), Weather by CustomWeather, © 2017

Note: Actual official high and low records may vary slightly from our data, if they occured in-between our weather recording intervals... More about our weather records

Advertising

Nienburg (Weser) Weather History for the Previous 24 Hours

Scroll right to see more
 ConditionsComfort  
Time TempWeatherWind HumidityBarometerVisibility
1:20 am
Wed, Jan 18
27 °FChilly.No wind93%30.72 "HgN/A
12:20 am27 °FChilly.2 mph93%30.69 "HgN/A
11:20 pm
Tue, Jan 17
27 °FChilly.No wind93%30.72 "HgN/A
10:20 pm25 °FCold.1 mph100%30.72 "HgN/A
9:20 pm25 °FCold.1 mph100%30.72 "HgN/A
8:20 pm25 °FCold.1 mph100%30.69 "HgN/A
7:20 pm25 °FIce fog.1 mph100%30.69 "Hg1 mi
6:20 pm25 °FIce fog.1 mph100%30.66 "Hg2 mi
6:02 pm25 °FIce fog.1 mph100%30.66 "Hg2 mi
5:20 pm27 °FIce fog.2 mph93%30.66 "Hg2 mi
4:59 pm27 °FIce fog.1 mph93%30.66 "Hg2 mi
4:20 pm27 °FIce fog.2 mph93%30.66 "Hg2 mi
3:46 pm27 °FIce fog.2 mph93%30.66 "Hg2 mi
3:20 pm27 °FIce fog.1 mph93%30.66 "Hg2 mi
2:20 pm25 °FIce fog.2 mph100%30.66 "Hg2 mi
1:20 pm25 °FIce fog.1 mph93%30.66 "Hg2 mi
1:00 pm25 °FIce fog.2 mph93%30.66 "Hg2 mi
12:20 pm25 °FIce fog.5 mph93%30.66 "Hg1 mi
11:43 am23 °FIce fog.3 mph100%30.66 "Hg1 mi
11:20 am23 °FIce fog.2 mph93%30.63 "Hg1 mi
10:48 am25 °FIce fog.3 mph93%30.63 "Hg1 mi
10:20 am23 °FIce fog.3 mph100%30.63 "Hg1 mi
9:20 am23 °FIce fog.3 mph93%30.63 "Hg1 mi
8:20 am23 °FIce fog.3 mph93%30.60 "Hg0 mi
7:20 am23 °FIce fog.2 mph100%30.57 "Hg1 mi
6:20 am23 °FIce fog.2 mph93%30.57 "Hg1 mi
5:20 am23 °FIce fog.5 mph100%30.54 "Hg1 mi
4:20 am25 °FCold.3 mph93%30.54 "HgN/A
3:20 am25 °FCold.3 mph93%30.54 "HgN/A
Weather by CustomWeather, © 2017

See weather overviewHow to use our weather pages